Location: ???? ?????
(30.0052°N, 31.2891°E)
Time: 19:36:49
(UTC+00:00)

Iridium 16 - Pass Details

Date: 01 February 2023
Orbit: 766 x 768 km, 86.4° (Epoch: 20 March)

Event Time Altitude Azimuth Distance (km) Brightness Sun altitude
Rises 02:22:43 0° 154° (SSE) 3,219 9.1 -31.1°
Reaches altitude 10° 02:25:19 10° 143° (SE) 2,297 8.4 -30.5°
Maximum altitude 02:29:39 28° 85° (E) 1,400 7.4 -29.6°
Drops below altitude 10° 02:34:01 10° 27° (NNE) 2,309 8.2 -28.6°
Sets 02:36:37 0° 16° (NNE) 3,239 8.9 -28.0°
